Regional Weather Roundup
Issued by NWS

Home | Current Version | Previous Version | Text Only | Print | Product List | Glossary On
Versions: 1 2 3 4 5 6 7 8 9 10 11 12 13 14 15 16 17 18 19 20 21 22 23 24 25 26 27 28 29 30 31 32 33 34 35 36 37 38 39 40 41 42 43 44 45 46 47 48 49 50
000
ASUS43 KDMX 261907
RWRIA

WEATHER ROUNDUP FOR IOWA
NATIONAL WEATHER SERVICE DES MOINES IA
200 PM CDT SAT JUL 26 2014

NOTE: "FAIR" INDICATES FEW OR NO CLOUDS BELOW 12,000 FEET WITH NO
SIGNIFICANT WEATHER AND/OR OBSTRUCTIONS TO VISIBILITY.

* - THESE STATIONS ARE NOT NWS STATIONS...THUS NOT UNDER NWS
QUALITY CONTROL.  THEY ALSO DO NOT REPORT WEATHER SUCH
AS PRECIPITATION OR FOG.

IAZ001>003-012>014-020>022-031>034-043>046-262000-
   NORTHWEST IOWA

CITY           SKY/WX    TMP DP  RH WIND       PRES   REMARKS
CARROLL *      MOSUNNY   79  73  83 N7        29.91R HX  82
CHEROKEE *     CLOUDY    75  72  88 NE9       29.92F
DENISON *      MOSUNNY   79  72  78 NE10      29.89R HX  82
LE MARS *      MOSUNNY   75  72  88 VRB6      29.91F
ORANGE CITY *  CLOUDY    77  70  78 E3        29.90F
SHELDON *      CLOUDY    75  70  83 SE7       29.86F
SIOUX CITY     LGT RAIN  78  72  81 N5        29.90F HX  80
SPENCER        LGT RAIN  74  71  91 S6        29.90F
STORM LAKE *   MOSUNNY   75  75 100 N12       29.95R
$$

IAZ055>058-069>071-079>083-090>094-262000-
   SOUTHWEST IOWA

CITY           SKY/WX    TMP DP  RH WIND       PRES   REMARKS
ATLANTIC *     SUNNY     86  73  66 NE12      29.85R HX  93
AUDUBON *      SUNNY     84  77  79 NE12G17   29.90R HX  94
CLARINDA *     SUNNY     82  75  78 E7        29.83R HX  89
COUNCIL BLFS * PTSUNNY   84  77  79 NE12      29.85R HX  94
CRESTON *      SUNNY     82  73  74 E13G18    29.85S HX  88
HARLAN  *      SUNNY     84  72  65 E10       29.91R HX  89
LAMONI         CLOUDY    82  75  79 E8        29.82F HX  89
RED OAK *      MOSUNNY   84  73  70 E14       29.82R HX  91
SHENANDOAH *   MOSUNNY   84  75  74 E9        29.82R HX  92
$$

IAZ047>049-059>061-072>074-084-262000-
   CENTRAL IOWA

CITY           SKY/WX    TMP DP  RH WIND       PRES   REMARKS
AMES           PTSUNNY   79  71  76 N8        29.89R HX  82
ANKENY *       SUNNY     82  73  74 N7        29.87R HX  88
CHARITON *     MOSUNNY   82  73  74 SE6       29.85F HX  88
DES MOINES     PTSUNNY   86  70  58 CALM      29.86R HX  90
GRINNELL*      CLOUDY    79  70  73 N6        29.89R HX  81
KNOXVILLE *    PTSUNNY   81  72  74 CALM      29.86R HX  84
MARSHALLTOWN   CLOUDY    78  70  76 NW10      29.90R HX  80
PELLA *        PTSUNNY   84  72  65 CALM      29.87R HX  89
PERRY *          N/A     81  72  74 NE5       29.89R HX  84
$$

IAZ004>006-015-016-023>025-035-036-262000-
   NORTH CENTRAL IOWA

CITY           SKY/WX    TMP DP  RH WIND       PRES   REMARKS
ALGONA *       SUNNY     77  72  83 VRB7      29.93R
CLARION *      PTSUNNY   81  75  83 NW9       29.92R HX  86
ESTHERVILLE    LGT RAIN  73  66  78 S9        29.88F
FORT DODGE *   CLOUDY    79  73  83 W7        29.94R HX  82
MASON CITY     CLOUDY    79  72  79 N13       29.90F HX  82
FOREST CITY *  MOSUNNY   77  73  88 NE6       29.93R
IOWA FALLS *   CLOUDY    81  72  74 SW6       29.92R HX  84
$$

IAZ007>011-017>019-026>030-037>042-050>054-066-262000-
   NORTHEAST IOWA

CITY           SKY/WX    TMP DP  RH WIND       PRES   REMARKS
CEDAR RAPIDS   CLOUDY    81  70  69 N6        29.86R HX  84
CHARLES CITY * MOSUNNY   77  72  83 NW7G14    29.91F
CLINTON *      CLOUDY    77  70  78 SE5       29.85R
DECORAH *      CLOUDY    75  72  88 NW5       29.88R
DUBUQUE        CLOUDY    78  70  76 N6        29.87R HX  80
MONTICELLO *   CLOUDY    79  72  78 CALM      29.85R HX  82
OELWEIN *      MOSUNNY   81  72  74 VRB5      29.88S HX  84
WATERLOO       CLOUDY    84  71  65 VRB3      29.86R HX  89
$$

IAZ064-065-067-068-078-262000-
   EAST CENTRAL IOWA

CITY           SKY/WX    TMP DP  RH WIND       PRES   REMARKS
DAVENPORT      CLOUDY    76  69  79 SE8       29.82F
IOWA CITY      CLOUDY    77  70  79 CALM      29.84R
MT. PLEASANT * PTSUNNY   81  70  69 S6        29.83F HX  84
MUSCATINE *    SUNNY     79  70  73 SE6       29.81F HX  81
QUAD CITIES    CLOUDY    78  69  73 SE6       29.81F HX  80
$$

IAZ062-063-075>077-085>089-095>099-262000-
   SOUTHEAST IOWA

CITY           SKY/WX    TMP DP  RH WIND       PRES   REMARKS
BURLINGTON     CLOUDY    78  72  81 S3        29.83S HX  80
FAIRFIELD *    MOSUNNY   81  72  74 S8        29.84F HX  84
FORT MADISON * CLOUDY    79  75  89 CALM      29.84F HX  82
KEOKUK *       PTSUNNY   79  75  89 CALM      29.83F HX  82
OSKALOOSA *      N/A     79  73  83 S6        29.86R HX  82
CENTERVILLE *  PTSUNNY   77  75  94 E5        29.86F
OTTUMWA        PTSUNNY   81  73  76 S8        29.84F HX  86
WASHINGTON *   SUNNY     81  73  78 CALM      29.83S HX  85
$$

ABBREVIATIONS USED IN REMARKS
   TC - TEMPERATURES IN CELSIUS
  WCI - WIND CHILL INDEX
   HX - HEAT INDEX
  VSB - VISIBILITY
$$



USA.gov is the U.S. government's official web portal to all federal, state and local government web resources and services.